Location: *
(18.5200°S, 46.4500°E)
Time: 15:48:09
(UTC+00:00)

Cosmos 1624 Rocket - Pass Details

Date: 19 July 2019
Orbit: 758 x 783 km, 74.0° (Epoch: 23 August)

Event Time Altitude Azimuth Distance (km) Brightness Sun altitude
Rises 15:18:24 0° 1° (N) 3,197 7.5 -10.5°
Reaches altitude 10° 15:20:50 10° 7° (N) 2,277 6.6 -11.0°
Maximum altitude 15:25:45 46° 79° (E) 1,020 4.3 -12.1°
Drops below altitude 10° 15:30:43 10° 151° (SSE) 2,302 6.0 -13.3°
Enters shadow 15:31:01 - 152° (SSE) 2,409 6.2 -13.3°
